User: anonymous   Login
Location: Unspecified
(0.0000°N, 0.0000°E)
Time: 05:49:18
(UTC+00:00)
Language:

BEESAT 2 - Orbit

View from above orbital plane
View from above orbital plane
View from above satellite
View from above satellite

Ground track
Ground track

The orbit data is extracted from the following two-line orbital elements,

1 39136U 13015G   21137.42651892  .00001122  00000-0  63217-4 0  9992
2 39136  64.8758 308.3011 0025294 249.1630 110.6787 15.18657791445783
Epoch (UTC): 17 May 2021 10:14:11
Eccentricity: 0.0025294
inclination: 64.8758°
perigee height: 492 km
apogee height: 527 km
right ascension of ascending node: 308.3011°
argument of perigee: 249.1630°
revolutions per day: 15.18657791
mean anomaly at epoch: 110.6787°
orbit number at epoch: 44578

The dashed part of the orbit path shows where the satellite is in the earth's shadow,  

DLR